Location: Gleizolles
(44.4833°N, 6.7667°E)
Time: 21:14:59
(UTC+00:00)

Tiros 1 despin weight - Pass Details

Date: 04 July 2024
Orbit: 576 x 620 km, 48.2° (Epoch: 19 July)

Event Time Altitude Azimuth Distance (km) Brightness Sun altitude
Rises 06:34:19 0° 216° (SW) 2,831 ? 25.7°
Reaches altitude 10° 06:36:44 10° 207° (SSW) 1,940 ? 26.1°
Maximum altitude 06:40:44 33° 143° (SE) 1,022 ? 26.8°
Drops below altitude 10° 06:44:49 10° 79° (E) 1,972 ? 27.5°
Sets 06:47:18 0° 70° (ENE) 2,886 ? 28.0°
